This is the latest recevied weather packets stored in our database for station/object HS2LXA-WX. If no packets are shown the sender has not sent any weather packets the latest 10 day(s).
| Time | Temp. | Humidity | Pressure | Rain* | Wind** | Luminosity | Snow |
|---|---|---|---|---|---|---|---|
| 1777519432 | 34.44° C | 65% | 1013.1 hPa | 0 mm | - | - | - |
| 1777518827 | 34.44° C | 67% | 1013.2 hPa | 0 mm | - | - | - |
| 1777518223 | 34.44° C | 69% | 1013.1 hPa | 0 mm | - | - | - |
| 1777517619 | 33.89° C | 69% | 1013.2 hPa | 0 mm | - | - | - |
| 1777517018 | 33.89° C | 68% | 1013.1 hPa | 0 mm | - | - | - |
| 1777516414 | 33.89° C | 69% | 1013.1 hPa | 0 mm | - | - | - |
| 1777515810 | 33.33° C | 71% | 1013.1 hPa | 0 mm | - | - | - |
| 1777515205 | 32.78° C | 73% | 1013.1 hPa | 0 mm | - | - | - |
| 1777514601 | 33.33° C | 73% | 1013.2 hPa | 0 mm | - | - | - |
| 1777513997 | 32.22° C | 74% | 1013.2 hPa | 0 mm | - | - | - |
| 1777513393 | 32.22° C | 74% | 1013.2 hPa | 0 mm | - | - | - |
| 1777512792 | 32.22° C | 75% | 1013.2 hPa | 0 mm | - | - | - |
| 1777512188 | 32.78° C | 74% | 1013.1 hPa | 0 mm | - | - | - |
| 1777511583 | 32.22° C | 76% | 1013.1 hPa | 0 mm | - | - | - |
| 1777510979 | 32.22° C | 75% | 1013.1 hPa | 0 mm | - | - | - |
| 1777510375 | 32.22° C | 76% | 1013.2 hPa | 0 mm | - | - | - |
| 1777509771 | 31.67° C | 78% | 1013.2 hPa | 0 mm | - | - | - |
| 1777509167 | 31.11° C | 79% | 1013.2 hPa | 0 mm | - | - | - |
| 1777508566 | 30.56° C | 83% | 1013.2 hPa | 0 mm | - | - | - |
| 1777507962 | 30.56° C | 83% | 1013.2 hPa | 0 mm | - | - | - |
| 1777507358 | 30.56° C | 85% | 1013.1 hPa | 0 mm | - | - | - |
| 1777506754 | 30.56° C | 82% | 1013.2 hPa | 0 mm | - | - | - |
| 1777506153 | 31.11° C | 80% | 1013.2 hPa | 0 mm | - | - | - |
| 1777505549 | 31.11° C | 80% | 1013.2 hPa | 0 mm | - | - | - |
| 1777504945 | 31.11° C | 80% | 1013.1 hPa | 0 mm | - | - | - |
* Rain latest hour (hover to see other rain measurements)
** Current wind speed in m/s (hover to see current wind gust speed)